Date,TemperatureHighF,TemperatureAvgF,TemperatureLowF,DewpointHighF,DewpointAvgF,DewpointLowF,HumidityHigh,HumidityAvg,HumidityLow,PressureMaxIn,PressureMinIn,WindSpeedMaxMPH,WindSpeedAvgMPH,GustSpeedMaxMPH,PrecipitationSumIn
2013-1-1,78,72,65,59,52,40,54,49,39,0.00,40.00,17,4,25,0.00
2013-1-2,83,72,61,64,38,23,55,31,19,0.00,40.00,10,2,15,0.00
2013-1-3,80,74,68,54,35,25,41,25,18,0.00,40.00,13,2,15,0.00
2013-1-4,83,72,66,53,31,25,36,22,16,0.00,40.00,8,2,12,0.00
2013-1-5,79,71,67,38,28,26,24,20,17,0.00,40.00,10,2,12,0.01
2013-1-6,80,74,66,42,29,24,26,20,14,0.00,40.00,16,3,20,0.00
2013-1-7,79,74,69,36,27,25,22,18,15,0.00,40.00,10,2,14,0.02
2013-1-8,81,77,71,35,29,26,20,17,15,0.00,40.00,11,4,17,0.81
2013-1-9,82,79,76,43,35,28,27,21,17,0.00,40.00,15,6,17,0.01
2013-1-10,80,77,74,62,43,32,55,32,19,0.00,40.00,16,6,21,0.00
2013-1-11,78,76,74,49,37,29,37,25,18,0.00,40.00,13,5,17,0.05
2013-1-12,81,76,73,60,46,38,49,35,26,0.00,40.00,12,3,14,0.00
2013-1-13,80,75,72,58,47,36,48,37,24,0.00,40.00,13,5,17,0.00
2013-1-14,79,75,71,59,48,38,50,39,26,0.00,40.00,17,4,17,0.00
2013-1-15,77,75,72,48,42,37,37,31,26,0.00,40.00,12,3,14,0.00
2013-1-16,80,74,65,57,38,24,45,28,20,0.00,40.00,13,3,18,0.00
2013-1-17,80,72,60,47,32,26,34,23,17,0.00,40.00,17,4,22,0.10
2013-1-18,73,63,51,55,42,24,55,46,34,0.00,40.00,15,6,17,0.10
2013-1-19,73,70,67,52,37,26,54,32,19,0.00,40.00,8,2,12,0.38
2013-1-20,80,71,64,42,30,26,28,21,16,0.00,40.00,10,2,13,0.01
2013-1-21,79,73,67,39,29,24,25,19,16,0.00,40.00,11,2,19,0.20
2013-1-22,75,68,63,57,40,22,56,38,21,0.00,40.00,18,7,22,0.00
2013-1-23,76,67,60,57,45,28,57,45,28,0.00,40.00,11,4,14,0.00
2013-1-24,78,67,59,55,44,25,58,45,25,0.00,40.00,12,4,15,0.00
2013-1-25,79,67,57,61,44,27,57,44,24,0.00,40.00,9,2,13,0.00
2013-1-26,80,68,58,59,43,25,58,41,23,0.00,40.00,8,2,12,0.00
2013-1-27,80,71,62,61,45,24,57,41,22,0.00,40.00,9,2,14,0.00
2013-1-28,80,74,70,62,47,30,55,39,19,0.00,40.00,12,6,17,0.00
2013-1-29,78,76,73,44,34,27,33,23,17,0.00,40.00,13,5,20,0.04
2013-1-30,78,74,72,54,42,28,45,31,18,0.00,40.00,23,7,26,0.00
2013-1-31,73,66,56,52,36,24,58,36,18,0.00,40.00,17,5,18,0.01
2013-2-1,73,61,50,56,45,34,61,55,46,0.00,40.00,15,6,23,0.00
2013-2-2,75,63,54,53,44,33,58,50,39,0.00,40.00,9,2,14,0.00
2013-2-3,76,63,53,51,38,21,58,41,25,0.00,40.00,11,3,15,0.00
2013-2-4,76,62,47,54,40,27,57,45,29,0.00,40.00,13,2,16,0.00
2013-2-5,77,66,53,60,40,18,56,39,23,0.00,40.00,12,2,14,0.00
2013-2-6,80,70,60,59,40,22,53,34,19,0.00,40.00,12,2,14,0.00
2013-2-7,80,74,71,60,42,32,53,32,22,0.00,40.00,13,4,18,0.00
2013-2-8,84,75,70,65,37,26,56,27,18,0.00,40.00,11,4,16,0.00
2013-2-9,80,72,65,62,42,24,54,36,19,0.00,40.00,11,3,14,0.00
2013-2-10,75,71,70,55,45,24,50,39,18,0.00,40.00,15,6,18,0.02
2013-2-11,78,73,69,59,48,36,53,41,26,0.00,40.00,16,6,20,0.00
2013-2-12,81,75,65,58,37,24,47,26,18,0.00,40.00,16,5,23,0.00
2013-2-13,83,77,70,48,34,26,33,21,16,0.00,40.00,18,6,22,0.00
2013-2-14,74,69,64,30,27,24,22,20,17,0.00,40.00,15,4,21,1.43
2013-2-15,74,68,64,35,27,25,24,21,19,0.00,40.00,9,2,14,0.44
2013-2-16,72,65,53,55,37,24,60,39,22,0.00,40.00,19,6,25,0.00
2013-2-17,60,51,43,40,29,19,61,45,26,0.00,40.00,22,9,26,0.00
2013-2-18,69,59,45,51,43,30,61,55,46,0.00,40.00,15,5,17,0.00
2013-2-19,77,71,60,61,48,27,59,46,19,0.00,40.00,19,5,23,0.02
2013-2-20,80,71,63,60,37,24,50,29,20,0.00,40.00,9,2,12,0.02
2013-2-21,80,74,66,60,39,25,51,29,20,0.00,40.00,9,2,17,0.00
2013-2-22,81,77,74,49,37,31,33,24,19,0.00,40.00,17,6,23,0.00
2013-2-23,83,77,73,54,38,28,39,25,18,0.00,40.00,21,7,24,0.02
2013-2-24,88,78,72,68,40,28,54,28,16,0.00,40.00,13,3,16,0.02
2013-2-25,84,77,69,55,34,26,39,21,17,0.00,40.00,20,5,25,0.01
2013-2-26,86,80,76,68,42,29,55,28,17,0.00,40.00,20,8,27,0.01
2013-2-27,78,70,63,59,36,24,58,30,17,0.00,40.00,11,3,14,0.27
2013-2-28,72,64,59,52,40,24,58,42,21,0.00,40.00,12,4,18,0.19
2013-3-1,65,61,57,50,44,37,60,55,39,0.00,40.00,11,4,16,0.00
2013-3-2,68,57,50,42,39,34,60,51,36,0.00,40.00,18,7,26,0.00
2013-3-3,62,53,46,40,36,31,60,53,41,0.00,40.00,20,6,24,0.00
2013-3-4,68,54,40,44,34,26,60,49,26,0.00,40.00,16,5,22,0.00
2013-3-5,74,62,49,57,42,22,58,47,31,0.00,40.00,14,3,20,0.00
2013-3-6,77,65,52,57,35,22,57,34,22,0.00,40.00,17,6,25,0.00
2013-3-7,73,59,46,54,39,24,61,49,28,0.00,40.00,13,5,20,0.00
2013-3-8,75,63,53,53,40,22,59,43,27,0.00,40.00,8,2,15,0.00
2013-3-9,76,65,55,58,44,23,59,47,27,0.00,40.00,10,2,15,0.00
2013-3-10,76,70,67,58,53,46,59,56,46,0.00,40.00,13,4,17,0.00
2013-3-11,77,71,67,61,52,44,58,51,37,0.00,40.00,13,6,22,0.00
2013-3-12,79,74,70,55,43,31,47,34,20,0.00,40.00,19,7,28,0.00
2013-3-13,74,66,58,56,39,20,58,39,22,0.00,40.00,15,6,18,0.00
2013-3-14,70,60,52,50,39,25,58,46,28,0.00,40.00,14,7,19,0.00
2013-3-15,74,62,51,55,42,29,58,49,36,0.00,40.00,11,4,16,0.00
2013-3-16,75,65,53,55,40,18,58,42,23,0.00,40.00,15,3,19,0.00
2013-3-17,76,68,59,59,45,24,57,44,25,0.00,40.00,14,3,21,0.00
2013-3-18,79,73,68,56,39,25,45,31,17,0.00,40.00,19,5,25,0.25
2013-3-19,79,74,69,46,31,24,32,21,17,0.00,40.00,17,2,25,0.25
2013-3-20,80,72,63,62,35,21,56,28,15,0.00,40.00,19,2,20,0.01
2013-3-21,77,67,53,53,37,20,57,36,17,0.00,40.00,12,4,17,0.00
2013-3-22,76,67,52,59,36,15,56,35,14,0.00,40.00,16,3,19,0.00
2013-3-23,84,78,72,59,31,23,43,19,13,0.00,40.00,20,4,24,0.01
2013-3-24,89,80,72,70,42,21,55,30,13,0.00,40.00,29,8,30,0.51
2013-3-25,83,74,64,59,38,23,55,28,16,0.00,40.00,14,4,18,0.52
2013-3-26,70,60,51,41,36,30,57,41,24,0.00,40.00,19,9,24,0.00
2013-3-27,68,56,45,48,39,30,59,53,41,0.00,40.00,15,6,20,0.00
2013-3-28,72,61,49,51,40,21,56,47,31,0.00,40.00,12,4,16,0.00
2013-3-29,76,65,53,53,46,30,57,50,39,0.00,40.00,9,2,13,0.00
2013-3-30,76,68,63,53,50,46,57,52,39,0.00,40.00,11,2,16,0.00
2013-3-31,79,71,61,60,43,18,56,39,17,0.00,40.00,22,5,23,0.00
2013-4-1,89,78,72,66,44,23,56,34,14,0.00,40.00,16,4,23,0.00
2013-4-2,85,75,66,66,40,21,54,30,15,0.00,40.00,11,3,14,0.00
2013-4-3,82,77,75,59,37,22,46,25,14,0.00,40.00,13,4,19,0.00
2013-4-4,84,77,69,48,28,21,30,17,13,0.00,40.00,20,6,25,0.73
2013-4-5,75,70,66,27,24,21,20,18,15,0.00,40.00,20,4,21,1.10
2013-4-6,78,69,59,61,37,19,55,32,18,0.00,40.00,14,6,17,0.00
2013-4-7,79,73,70,62,53,44,57,50,37,0.00,40.00,11,4,17,0.00
2013-4-8,81,74,63,64,51,20,57,47,18,0.00,40.00,10,2,14,0.00
2013-4-9,81,76,74,61,44,32,51,32,21,0.00,40.00,12,4,17,0.00
2013-4-10,84,79,75,52,36,25,34,21,15,0.00,40.00,15,5,19,0.00
2013-4-11,84,80,77,49,34,26,31,20,14,0.00,40.00,17,8,24,0.00
2013-4-12,87,81,78,51,31,25,30,17,13,0.00,40.00,22,8,33,0.03
2013-4-13,86,79,76,56,33,25,37,19,13,0.00,40.00,11,2,17,0.18
2013-4-14,86,81,75,50,32,25,30,17,14,0.00,40.00,17,5,24,0.00
2013-4-15,89,78,72,70,36,24,53,23,15,0.00,40.00,19,4,22,1.18
2013-4-16,86,79,72,45,32,23,24,18,11,0.00,40.00,10,2,15,0.02
2013-4-17,85,79,75,67,49,29,55,38,17,0.00,40.00,10,2,14,0.00
2013-4-18,84,80,75,58,44,30,44,29,16,0.00,40.00,16,5,20,0.00
2013-4-19,86,82,79,63,43,26,49,26,14,0.00,40.00,23,8,28,0.01
2013-4-20,87,79,74,47,28,24,26,16,13,0.00,40.00,18,4,18,0.24
2013-4-21,84,78,73,57,34,25,43,21,14,0.00,40.00,14,4,18,0.00
2013-4-22,82,76,72,56,32,24,41,20,14,0.00,40.00,15,3,22,0.65
2013-4-23,83,76,73,65,48,26,56,39,17,0.00,40.00,14,6,16,0.00
2013-4-24,84,77,71,65,59,50,57,53,46,0.00,40.00,11,3,14,0.00
2013-4-25,85,76,71,64,58,50,57,53,46,0.00,40.00,8,3,13,0.00
2013-4-26,84,76,70,66,56,47,56,50,40,0.00,40.00,10,2,13,0.00
2013-4-27,82,76,72,64,57,50,57,51,41,0.00,40.00,11,4,16,0.00
2013-4-28,83,76,72,64,57,49,56,51,43,0.00,40.00,15,6,16,0.00
2013-4-29,84,78,73,66,51,33,56,42,19,0.00,40.00,19,6,20,0.00
2013-4-30,83,76,70,45,29,23,27,17,13,0.00,40.00,12,2,18,0.79
2013-5-1,84,76,70,39,27,22,21,17,13,0.00,40.00,12,2,17,0.51
2013-5-2,79,74,70,29,26,22,20,16,14,0.00,40.00,15,5,20,2.19
2013-5-3,86,76,69,68,36,20,54,26,13,0.00,40.00,15,4,46,0.82
2013-5-4,89,77,67,68,42,19,54,31,11,0.00,40.00,17,3,18,0.04
2013-5-5,86,76,68,65,42,17,55,34,12,0.00,40.00,15,4,18,0.00
2013-5-6,84,72,62,63,47,15,56,44,15,0.00,40.00,11,2,15,0.01
2013-5-7,85,73,63,62,48,22,55,42,21,0.00,40.00,11,4,20,0.00
2013-5-8,86,74,63,64,45,17,54,38,15,0.00,40.00,10,2,14,0.00
2013-5-9,85,78,68,66,44,18,53,32,11,0.00,40.00,11,3,15,0.00
2013-5-10,87,82,78,68,37,20,53,23,11,0.00,40.00,14,4,19,0.00
2013-5-11,86,80,73,56,30,20,37,17,10,0.00,40.00,19,5,26,0.81
2013-5-12,88,77,71,67,32,14,50,20,8,0.00,40.00,12,2,22,0.97
2013-5-13,90,78,71,69,42,17,52,31,10,0.00,40.00,12,3,19,0.01
2013-5-14,83,77,72,61,56,47,55,49,37,0.00,40.00,10,4,17,0.00
2013-5-15,84,76,72,63,57,51,56,52,47,0.00,40.00,11,3,15,0.00
2013-5-16,83,76,70,64,57,46,55,51,35,0.00,40.00,13,3,18,0.00
2013-5-17,84,79,74,57,38,16,51,26,10,0.00,40.00,12,3,17,0.00
2013-5-18,86,80,74,56,34,17,39,20,10,0.00,40.00,12,4,17,0.00
2013-5-19,86,81,78,67,46,30,53,31,17,0.00,40.00,10,4,15,0.00
2013-5-20,83,78,70,39,26,19,22,15,11,0.00,40.00,13,2,24,1.89
2013-5-21,84,77,70,42,26,19,25,15,11,0.00,40.00,13,4,18,3.13
2013-5-22,85,80,77,58,30,21,46,17,12,0.00,40.00,14,3,17,0.00
2013-5-23,95,83,75,73,39,20,52,25,10,0.00,40.00,11,3,16,0.00
2013-5-24,91,84,76,71,48,20,53,33,10,0.00,40.00,11,3,12,0.00
2013-5-25,86,81,75,67,50,22,54,39,12,0.00,40.00,12,4,15,0.02
2013-5-26,86,79,73,66,58,44,55,50,31,0.00,40.00,12,3,15,0.00
2013-5-27,85,79,74,65,51,30,53,39,16,0.00,40.00,12,5,18,0.00
2013-5-28,85,80,76,55,29,20,37,16,11,0.00,40.00,19,7,19,0.11
2013-5-29,82,78,73,42,24,20,26,13,11,0.00,40.00,14,6,20,1.89
2013-5-30,83,80,76,50,27,20,34,15,11,0.00,40.00,18,8,21,0.36
2013-5-31,86,79,76,41,26,21,21,14,11,0.00,40.00,14,6,19,0.48
2013-6-1,87,80,77,42,25,21,21,13,10,0.00,40.00,14,3,17,0.18
2013-6-2,88,81,73,66,37,18,49,23,9,0.00,40.00,13,2,19,0.02
2013-6-3,87,80,75,59,30,19,40,16,11,0.00,40.00,15,2,16,0.49
2013-6-4,88,80,74,44,24,13,22,13,7,0.00,40.00,6,1,9,0.50
2013-6-5,86,83,82,25,20,17,11,10,9,0.00,40.00,10,3,13,0.03
2013-6-6,88,81,75,31,23,18,17,12,8,0.00,40.00,25,8,33,1.45
2013-6-7,89,79,74,64,28,19,45,16,10,0.00,40.00,14,3,20,0.49
2013-6-8,86,79,74,33,24,10,20,14,6,0.00,40.00,11,2,17,1.61
2013-6-9,87,83,76,50,24,14,29,12,7,0.00,40.00,13,5,18,0.67
2013-6-10,89,85,82,51,28,16,28,13,8,0.00,40.00,12,5,16,0.00
2013-6-11,89,85,82,67,29,17,49,15,8,0.00,40.00,17,3,21,0.00
2013-6-12,89,83,79,49,23,17,26,11,8,0.00,40.00,7,1,13,0.00
2013-6-13,88,82,75,57,21,-12,35,12,2,0.00,40.00,12,1,18,0.12
2013-6-14,93,83,76,72,33,6,51,20,5,0.00,40.00,11,3,21,0.03
2013-6-15,94,84,75,73,37,13,52,24,7,0.00,40.00,12,1,14,0.00
2013-6-16,89,85,79,66,32,13,49,18,7,0.00,40.00,10,2,16,0.00
2013-6-17,89,86,80,66,34,15,47,18,8,0.00,40.00,12,4,19,0.00
2013-6-18,89,85,82,63,38,15,45,21,8,0.00,40.00,13,4,23,0.00
2013-6-19,90,85,80,68,37,16,48,21,8,0.00,40.00,13,4,18,0.00
2013-6-20,92,84,79,72,43,18,53,28,9,0.00,40.00,14,3,17,0.00
2013-6-21,89,84,79,68,42,17,50,25,9,0.00,40.00,12,4,16,0.05
2013-6-22,90,85,82,70,45,22,52,28,11,0.00,40.00,12,3,16,0.00
2013-6-23,88,84,81,66,41,18,49,24,9,0.00,40.00,14,5,18,0.01
2013-6-24,89,85,82,69,48,30,52,30,14,0.00,40.00,13,5,15,0.00
2013-6-25,88,85,82,62,38,19,41,20,9,0.00,40.00,12,4,17,0.00
2013-6-26,88,85,80,67,35,17,50,18,9,0.00,40.00,14,4,18,0.17
2013-6-27,89,83,76,53,24,16,30,11,8,0.00,40.00,15,2,15,0.54
2013-6-28,89,82,75,68,36,15,50,22,8,0.00,40.00,13,2,18,0.97
2013-6-29,89,81,75,66,30,15,47,17,8,0.00,40.00,15,2,32,1.20
2013-6-30,88,81,75,67,26,16,50,15,8,0.00,40.00,21,4,23,0.51
2013-7-1,90,83,77,66,29,18,51,15,9,0.00,40.00,20,6,26,0.30
2013-7-2,90,85,80,51,26,18,29,12,8,0.00,40.00,14,4,22,0.16
2013-7-3,90,84,77,59,28,19,37,14,9,0.00,40.00,18,5,23,0.23
2013-7-4,89,85,82,59,34,19,37,17,9,0.00,40.00,14,6,20,0.07
2013-7-5,88,85,79,60,34,19,42,17,9,0.00,40.00,17,6,21,0.15
2013-7-6,87,85,83,63,44,28,44,25,13,0.00,40.00,13,6,20,0.00
2013-7-7,88,85,81,66,43,20,50,25,10,0.00,40.00,13,4,18,0.01
2013-7-8,90,85,82,70,48,26,52,30,12,0.00,40.00,13,2,15,0.00
2013-7-9,87,83,78,63,36,18,46,20,9,0.00,40.00,12,2,14,0.26
2013-7-10,86,81,73,53,26,17,33,14,9,0.00,40.00,10,3,16,0.51
2013-7-11,88,83,78,65,34,17,48,20,9,0.00,40.00,11,2,18,0.00
2013-7-12,91,81,74,70,35,15,51,22,8,0.00,40.00,13,1,16,0.87
2013-7-13,87,78,73,28,24,17,18,14,9,0.00,40.00,11,1,15,0.54
2013-7-14,88,80,73,52,28,17,32,16,9,0.00,40.00,13,2,16,0.30
2013-7-15,88,80,74,57,30,16,38,17,8,0.00,40.00,10,1,17,0.20
2013-7-16,85,81,75,40,25,17,23,13,10,0.00,40.00,15,4,25,0.80
2013-7-17,84,81,78,37,26,18,19,13,10,0.00,40.00,10,2,14,0.08
2013-7-18,87,79,74,44,24,17,27,13,8,0.00,40.00,12,2,18,0.44
2013-7-19,89,82,74,47,24,12,24,13,6,0.00,40.00,13,3,19,0.19
2013-7-20,89,85,79,50,24,16,28,11,8,0.00,40.00,15,4,23,0.00
2013-7-21,89,83,77,55,27,18,33,13,8,0.00,40.00,13,2,18,0.07
2013-7-22,90,84,78,69,37,19,51,22,9,0.00,40.00,14,3,19,0.07
2013-7-23,92,85,80,71,39,17,52,24,9,0.00,40.00,15,3,19,0.00
2013-7-24,96,86,79,72,47,18,54,31,9,0.00,40.00,14,3,17,0.00
2013-7-25,95,85,78,74,46,16,53,30,9,0.00,40.00,12,3,16,0.00
2013-7-26,95,85,80,74,33,16,53,20,8,0.00,40.00,14,3,11,0.00
2013-7-27,89,82,78,64,25,16,45,13,8,0.00,40.00,9,1,0,0.00
2013-7-28,88,82,77,45,22,17,23,11,8,0.00,40.00,9,1,0,0.00
2013-7-29,91,84,77,58,30,17,36,16,8,0.00,40.00,14,2,0,0.00
2013-7-30,91,86,79,61,34,17,38,17,8,0.00,40.00,13,2,0,0.00
2013-7-31,90,86,84,68,42,19,49,25,9,0.00,40.00,13,4,12,0.00
2013-8-1,91,85,82,70,48,25,52,30,12,0.00,40.00,13,3,13,0.00
2013-8-2,92,82,76,72,33,17,53,19,9,0.00,40.00,11,2,0,0.00
2013-8-3,87,80,76,40,21,17,21,11,8,0.00,40.00,20,1,0,0.00
2013-8-4,92,81,74,69,32,16,48,18,8,0.00,40.00,18,2,0,0.00
2013-8-5,91,83,77,68,29,12,49,16,6,0.00,40.00,13,2,0,0.00
2013-8-6,92,84,75,69,38,15,48,22,8,0.00,40.00,11,1,0,0.00
2013-8-7,89,86,79,67,36,16,48,20,8,0.00,40.00,16,4,0,0.00
2013-8-8,90,86,83,69,43,18,51,25,9,0.00,40.00,18,5,0,0.00
2013-8-9,89,85,82,68,44,18,51,25,9,0.00,40.00,18,4,0,0.00
2013-8-10,90,86,84,68,41,19,48,23,9,0.00,40.00,16,4,0,0.00
2013-8-11,90,86,84,68,42,22,48,23,10,0.00,40.00,11,3,0,0.00
2013-8-12,92,86,83,72,48,26,53,29,12,0.00,40.00,9,1,0,0.00
2013-8-13,90,86,84,68,43,19,49,25,9,0.00,40.00,13,3,0,0.00
2013-8-14,91,85,78,71,40,16,52,25,8,0.00,40.00,17,3,0,0.00
2013-8-15,89,84,78,61,30,16,43,15,8,0.00,40.00,13,4,0,0.00
2013-8-16,91,86,79,65,30,16,43,16,7,0.00,40.00,11,3,0,0.00
2013-8-17,91,87,85,62,33,17,40,16,8,0.00,40.00,15,4,0,0.00
2013-8-18,90,87,84,68,38,16,49,19,8,0.00,40.00,13,4,0,0.00
2013-8-19,90,87,84,65,38,17,45,20,8,0.00,40.00,12,4,0,0.00
2013-8-20,91,86,82,70,40,18,51,23,9,0.00,40.00,12,3,0,0.00
2013-8-21,90,86,80,48,23,15,23,10,7,0.00,40.00,14,4,0,0.00
2013-8-22,91,87,84,50,27,16,26,12,7,0.00,40.00,11,3,0,0.00
2013-8-23,90,86,84,65,35,17,44,18,8,0.00,40.00,12,2,0,0.00
2013-8-24,92,86,82,71,40,19,51,23,9,0.00,40.00,10,2,0,0.00
2013-8-25,89,84,79,64,34,17,45,19,9,0.00,40.00,11,2,0,0.00
2013-8-26,91,83,77,71,34,16,53,21,9,0.00,40.00,11,1,0,0.00
2013-8-27,86,80,76,52,26,16,32,14,8,0.00,40.00,7,1,0,0.00
2013-8-28,87,83,77,62,34,16,47,18,9,0.00,40.00,12,2,0,0.00
2013-8-29,90,83,76,70,36,17,51,21,8,0.00,40.00,13,2,0,0.00
2013-8-30,92,86,80,72,41,16,55,26,8,0.00,40.00,14,3,0,0.00
2013-8-31,91,83,77,70,34,16,53,20,9,0.00,40.00,16,3,4,0.00
2013-9-1,89,82,75,64,30,13,43,17,7,0.00,40.00,14,1,5,0.00
2013-9-2,92,80,74,68,32,7,46,19,5,0.00,40.00,14,1,4,0.62
2013-9-3,93,83,72,72,36,2,52,23,4,0.00,40.00,7,1,4,0.00
2013-9-4,91,87,84,62,22,6,40,11,5,0.00,40.00,9,1,0,0.00
2013-9-5,91,87,84,71,31,14,51,17,7,0.00,40.00,9,2,7,0.00
2013-9-6,93,87,84,73,38,17,53,21,8,0.00,40.00,10,2,0,0.00
2013-9-7,89,80,74,45,25,16,23,14,8,0.00,40.00,12,1,1,0.00
2013-9-8,89,82,74,65,33,15,45,18,7,0.00,40.00,7,1,0,0.00
2013-9-9,90,83,76,66,37,17,47,22,9,0.00,40.00,10,2,0,0.00
2013-9-10,89,84,78,60,31,18,42,16,9,0.00,40.00,15,2,0,0.00
2013-9-11,86,83,77,48,25,19,29,12,10,0.00,40.00,12,2,0,0.00
2013-9-12,86,81,77,31,25,19,18,13,9,0.00,40.00,13,1,0,0.00
2013-9-13,90,83,74,54,32,18,31,17,8,0.00,40.00,9,1,0,0.00
2013-9-14,91,85,78,72,43,20,55,27,10,0.00,40.00,11,2,0,0.00
2013-9-15,90,84,77,46,27,20,25,13,10,0.00,40.00,13,2,0,0.00
2013-9-16,88,82,76,32,23,16,18,12,8,0.00,40.00,14,3,0,0.00
2013-9-17,83,80,74,34,26,20,20,14,10,0.00,40.00,9,2,0,0.00
2013-9-18,88,81,74,35,26,20,20,14,9,0.00,40.00,7,1,0,0.00
2013-9-19,89,82,74,55,33,20,34,17,10,0.00,40.00,10,2,0,0.00
2013-9-20,89,82,78,71,54,31,56,39,16,0.00,40.00,13,2,0,0.00
2013-9-21,89,83,78,71,54,30,55,38,15,0.00,40.00,7,1,0,0.00
2013-9-22,89,84,78,67,39,21,48,22,11,0.00,40.00,12,2,0,0.00
2013-9-23,89,83,78,58,29,22,38,15,10,0.00,40.00,9,1,0,0.00
2013-9-24,89,80,75,48,29,22,27,16,9,0.00,40.00,10,1,0,0.00
2013-9-25,90,81,74,72,39,22,56,25,11,0.00,40.00,13,3,0,0.00
2013-9-26,91,82,77,66,31,23,45,17,11,0.00,40.00,14,2,0,0.00
2013-9-27,88,81,74,69,42,23,54,27,11,0.00,40.00,11,3,0,0.00
2013-9-28,87,81,75,66,42,22,49,27,11,0.00,40.00,12,2,0,0.00
2013-9-29,89,82,78,71,56,22,56,42,12,0.00,40.00,5,1,0,0.00
2013-9-30,89,82,75,71,53,21,57,40,12,0.00,40.00,9,1,4,0.00
2013-10-1,89,84,80,71,54,33,56,38,17,0.00,40.00,10,2,0,0.00
2013-10-2,89,83,81,71,55,39,56,39,22,0.00,40.00,11,2,0,0.00
2013-10-3,89,83,80,71,51,30,56,36,15,0.00,40.00,7,2,0,0.00
2013-10-4,90,83,79,72,55,34,57,40,18,0.00,40.00,6,1,0,0.00
2013-10-5,90,82,73,71,48,22,56,34,12,0.00,40.00,7,1,0,0.00
2013-10-6,88,84,81,70,42,24,55,26,11,0.00,40.00,12,1,0,0.00
2013-10-7,92,80,71,73,40,23,56,26,12,0.00,40.00,15,2,0,0.00
2013-10-8,92,83,76,73,44,13,55,29,8,0.00,40.00,12,2,0,0.00
2013-10-9,86,80,74,38,25,16,20,13,10,0.00,40.00,13,4,0,0.00
2013-10-10,89,80,72,71,44,22,56,31,12,0.00,40.00,11,3,0,0.00
2013-10-11,88,80,71,70,51,20,58,41,13,0.00,40.00,13,2,0,0.00
2013-10-12,90,80,70,71,52,20,58,41,14,0.00,40.00,7,1,0,0.00
2013-10-13,87,80,75,68,53,21,58,42,13,0.00,40.00,10,2,0,0.00
2013-10-14,89,80,73,71,50,21,58,38,13,0.00,40.00,8,1,0,0.00
2013-10-15,87,79,72,69,43,22,55,30,13,0.00,40.00,8,1,0,0.00
2013-10-16,89,81,73,71,48,22,57,34,13,0.00,40.00,9,1,0,0.00
2013-10-17,88,82,75,71,46,22,57,32,13,0.00,40.00,10,1,0,0.00
2013-10-18,88,82,76,69,43,22,55,28,13,0.00,40.00,11,2,0,0.00
2013-10-19,87,83,80,69,46,24,55,30,13,0.00,40.00,14,3,0,0.00
2013-10-20,90,84,79,72,39,25,55,22,12,0.00,40.00,14,2,0,0.00
2013-10-21,88,84,77,64,38,26,45,21,12,0.00,40.00,15,3,0,0.00
2013-10-22,88,84,80,68,37,25,51,20,12,0.00,40.00,17,3,0,0.00
2013-10-23,90,81,76,72,42,26,57,28,13,0.00,40.00,12,3,0,0.00
2013-10-24,82,77,71,65,52,28,57,45,17,0.00,40.00,10,4,0,0.00
2013-10-25,83,77,70,66,56,23,58,50,17,0.00,40.00,12,4,0,0.00
2013-10-26,86,78,70,67,59,33,59,53,25,0.00,40.00,10,2,0,0.00
2013-10-27,85,75,67,68,51,22,58,44,18,0.00,40.00,7,1,0,0.00
2013-10-28,86,78,69,69,56,20,58,47,15,0.00,40.00,7,1,0,0.00
2013-10-29,87,80,72,70,57,22,59,48,15,0.00,40.00,11,2,0,0.00
2013-10-30,86,80,76,69,60,51,59,52,39,0.00,40.00,12,4,0,0.00
2013-10-31,86,80,76,69,50,25,58,39,13,0.00,40.00,16,4,0,0.00
2013-11-1,86,82,80,61,40,27,45,24,14,0.00,40.00,15,5,0,0.00
2013-11-2,90,80,71,71,44,24,59,31,13,0.00,40.00,12,3,0,0.00
2013-11-3,82,75,68,65,48,22,59,42,16,0.00,40.00,17,8,0,0.00
2013-11-4,81,77,74,64,58,46,59,53,35,0.00,40.00,15,6,0,0.00
2013-11-5,82,79,76,62,48,28,56,35,16,0.00,40.00,16,7,0,0.00
2013-11-6,85,80,77,68,51,29,57,38,17,0.00,40.00,14,4,0,0.00
2013-11-7,87,78,71,67,35,21,52,23,12,0.00,40.00,9,2,0,0.00
2013-11-8,84,78,72,65,32,22,54,20,13,0.00,40.00,14,6,0,0.00
2013-11-9,80,78,76,36,29,24,22,16,13,0.00,40.00,12,6,0,0.00
2013-11-10,84,80,77,63,42,29,50,27,16,0.00,40.00,10,2,0,0.00
2013-11-11,84,79,76,66,50,34,54,38,20,0.00,40.00,11,2,0,0.00
2013-11-12,86,79,75,69,49,27,59,37,16,0.00,40.00,9,2,0,0.00
2013-11-13,76,72,68,59,43,22,58,37,15,0.00,40.00,20,9,0,0.00
2013-11-14,77,72,68,61,56,49,59,57,46,0.00,40.00,16,6,0,0.00
2013-11-15,81,76,73,63,52,46,57,45,34,0.00,40.00,14,6,0,0.00
2013-11-16,80,78,74,58,39,23,46,26,14,0.00,40.00,12,4,0,0.00
2013-11-17,84,80,78,63,40,25,53,25,14,0.00,40.00,13,4,0,0.00
2013-11-18,84,80,73,55,34,24,38,20,13,0.00,40.00,7,1,0,0.00
2013-11-19,86,78,73,65,31,24,50,19,13,0.00,40.00,11,2,0,0.00
2013-11-20,84,77,68,46,28,20,26,17,10,0.00,40.00,7,1,0,0.00
2013-11-21,80,78,73,35,28,23,22,16,12,0.00,40.00,13,4,0,0.00
2013-11-22,82,78,77,59,37,25,46,24,14,0.00,40.00,15,4,0,0.00
2013-11-23,84,79,76,65,40,28,53,27,16,0.00,40.00,9,1,0,0.00
2013-11-24,81,74,68,62,33,23,52,23,14,0.00,40.00,18,6,0,0.00
2013-11-25,76,72,70,51,37,22,51,29,15,0.00,40.00,18,7,0,0.00
2013-11-26,84,80,75,37,29,25,19,16,14,0.00,40.00,23,8,0,0.00
2013-11-27,79,71,56,60,36,20,58,30,14,0.00,40.00,22,7,0,0.00
2013-11-28,75,63,48,59,37,9,59,41,19,0.00,40.00,14,5,0,0.00
2013-11-29,78,71,60,62,48,15,59,47,17,0.00,40.00,14,3,0,0.00
2013-11-30,77,71,62,59,39,17,56,34,14,0.00,40.00,13,3,0,0.00
2013-12-1,80,72,66,55,31,18,43,23,14,0.00,40.00,13,2,0,0.00
2013-12-2,70,67,62,30,23,17,24,19,14,0.00,40.00,10,2,0,0.00
2013-12-3,79,73,60,62,40,18,58,34,13,0.00,40.00,8,1,0,0.00
2013-12-4,82,74,64,64,37,20,55,28,13,0.00,40.00,11,1,0,0.00
2013-12-5,81,76,68,50,28,18,34,17,12,0.00,40.00,13,2,0,0.00
2013-12-6,82,78,75,61,37,23,50,25,13,0.00,40.00,15,4,0,0.00
2013-12-7,83,76,69,42,29,22,25,18,13,0.00,40.00,10,1,0,0.00
2013-12-8,81,78,76,62,38,25,51,25,14,0.00,40.00,13,4,0,0.00
2013-12-9,84,79,75,68,48,30,61,37,17,0.00,40.00,14,4,0,0.00
2013-12-10,84,79,77,62,38,28,51,24,16,0.00,40.00,12,3,0,0.00
2013-12-11,86,78,70,70,41,24,60,30,14,0.00,40.00,9,1,0,0.00
2013-12-12,78,73,70,56,39,26,57,32,15,0.00,40.00,18,6,0,0.00
2013-12-13,79,73,70,64,52,31,60,49,20,0.00,40.00,16,5,0,0.00
2013-12-14,82,78,75,54,35,25,39,22,15,0.00,40.00,18,6,0,0.00
2013-12-15,83,77,72,44,32,27,28,20,16,0.00,40.00,16,3,0,0.00
2013-12-16,76,68,62,61,36,21,60,33,19,0.00,40.00,12,5,0,0.00
2013-12-17,79,68,59,64,41,21,63,41,20,0.00,40.00,9,2,0,0.00
2013-12-18,76,66,60,61,39,20,63,40,20,0.00,40.00,14,4,0,0.00
2013-12-19,78,70,58,63,46,19,63,46,20,0.00,40.00,10,2,0,0.00
2013-12-20,82,77,73,66,54,33,60,47,20,0.00,40.00,12,4,0,0.00
2013-12-21,83,80,77,61,44,32,48,29,19,0.00,40.00,16,5,0,0.00
2013-12-22,83,80,78,61,41,32,48,26,18,0.00,40.00,21,7,0,0.00
2013-12-23,83,80,74,57,40,30,42,25,19,0.00,40.00,18,6,0,0.00
2013-12-24,84,73,69,66,35,25,55,26,16,0.00,40.00,19,5,0,0.00
2013-12-25,75,73,71,54,38,26,50,29,18,0.00,40.00,13,5,0,0.00
2013-12-26,79,76,73,52,38,29,41,25,19,0.00,40.00,9,2,0,0.00
2013-12-27,82,77,75,65,45,32,56,33,20,0.00,40.00,10,2,0,0.00
2013-12-28,80,78,75,56,44,31,44,30,19,0.00,40.00,15,6,0,0.00
2013-12-29,82,79,74,52,35,32,36,21,18,0.00,40.00,16,6,0,0.00
2013-12-30,80,73,69,42,33,28,27,23,19,0.00,40.00,10,2,0,0.00
2013-12-31,79,73,69,65,47,28,62,43,21,0.00,40.00,12,4,18,0.00
2014-1-1,82,77,73,55,42,33,53,29,19,0.00,40.00,15,5,15,0.00
2014-1-2,86,78,73,71,48,30,64,39,19,0.00,40.00,17,4,12,0.00